CES5396 ZHCC-ZSSS

Flight info

Callsign CES5396
Flight time N/A
Altitude 32100
Route RUM9W RUMGU W594 EPGOS W128 FYG B208 HFE R343 PK
Aircraft B738/M-SDE2E3FGHIRWXY/LB1

Departure

Time 2026-04-22 15:57
Airport Zhengzhou Xinzheng International Airport (ZHCC)

Arrival

Time N/A
Airport Shanghai Hongqiao International Airport (ZSSS)
Time Latitude Longitude Altitude Speed Heading
2026-04-22 15:38 34.52318 113.84693 504 ft 9 kts 215°
2026-04-22 15:38 34.52250 113.84656 504 ft 0 kts 201°
2026-04-22 15:39 34.52231 113.84648 504 ft 6 kts 201°
2026-04-22 15:40 34.52168 113.84617 504 ft 13 kts 201°
2026-04-22 15:40 34.52146 113.84607 504 ft 0 kts 201°
2026-04-22 15:44 34.52146 113.84606 504 ft 0 kts 201°
2026-04-22 15:44 34.52120 113.84592 504 ft 8 kts 205°
2026-04-22 15:45 34.53943 113.84091 503 ft 0 kts 112°
2026-04-22 15:45 34.53934 113.84120 503 ft 22 kts 112°
2026-04-22 15:46 34.53780 113.84568 500 ft 91 kts 112°
2026-04-22 15:46 34.53445 113.85497 496 ft 137 kts 115°
2026-04-22 15:46 34.53221 113.86068 493 ft 36 kts 116°
2026-04-22 15:46 34.53202 113.86115 497 ft 0 kts 116°
2026-04-22 15:55 34.53943 113.84091 503 ft 0 kts 112°
2026-04-22 15:56 34.53943 113.84092 503 ft 0 kts 112°
2026-04-22 15:56 34.53942 113.84094 503 ft 0 kts 112°
2026-04-22 15:56 34.53918 113.84165 502 ft 36 kts 112°
2026-04-22 15:56 34.53724 113.84729 501 ft 107 kts 112°
2026-04-22 15:57 34.53350 113.85794 499 ft 165 kts 116°
2026-04-22 15:57 34.52871 113.87202 849 ft 191 kts 112°
2026-04-22 15:57 34.52380 113.88696 1828 ft 183 kts 111°
2026-04-22 15:57 34.51923 113.90082 2811 ft 182 kts 109°
2026-04-22 15:58 34.51407 113.91638 3017 ft 213 kts 110°
2026-04-22 15:58 34.50817 113.93388 3013 ft 234 kts 110°
2026-04-22 15:58 34.50179 113.95243 3441 ft 237 kts 110°
2026-04-22 15:58 34.49546 113.97065 4100 ft 238 kts 110°
2026-04-22 15:59 34.48897 113.98920 4748 ft 240 kts 110°
2026-04-22 15:59 34.48240 114.00791 5359 ft 243 kts 110°
2026-04-22 15:59 34.47574 114.02685 5964 ft 246 kts 110°
2026-04-22 15:59 34.46900 114.04599 6549 ft 249 kts 110°
2026-04-22 16:00 34.46399 114.05885 6932 ft 251 kts 115°
2026-04-22 16:00 34.44954 114.08099 7754 ft 254 kts 130°
2026-04-22 16:00 34.43724 114.09653 8305 ft 257 kts 129°
2026-04-22 16:00 34.42489 114.11243 8855 ft 260 kts 129°
2026-04-22 16:01 34.41245 114.12850 9417 ft 263 kts 129°
2026-04-22 16:01 34.39992 114.14474 9825 ft 266 kts 129°
2026-04-22 16:01 34.38727 114.16114 9825 ft 266 kts 129°
2026-04-22 16:01 34.37466 114.17750 9837 ft 266 kts 129°
2026-04-22 16:02 34.36207 114.19385 9848 ft 266 kts 129°
2026-04-22 16:02 34.34946 114.21022 9845 ft 266 kts 129°
2026-04-22 16:02 34.33683 114.22660 9848 ft 266 kts 129°
2026-04-22 16:02 34.32422 114.24298 9842 ft 266 kts 129°
2026-04-22 16:03 34.31158 114.25937 9840 ft 266 kts 129°
2026-04-22 16:03 34.29895 114.27576 9846 ft 266 kts 129°
2026-04-22 16:03 34.28632 114.29214 9840 ft 266 kts 129°
2026-04-22 16:03 34.27367 114.30854 9842 ft 266 kts 129°
2026-04-22 16:04 34.26103 114.32491 9842 ft 266 kts 129°
2026-04-22 16:04 34.24859 114.34103 9846 ft 266 kts 129°
2026-04-22 16:04 34.23732 114.35560 9839 ft 266 kts 129°
2026-04-22 16:04 34.22471 114.37191 9840 ft 266 kts 129°
2026-04-22 16:05 34.21017 114.38577 9940 ft 273 kts 151°
2026-04-22 16:05 34.19240 114.39426 10441 ft 278 kts 154°
2026-04-22 16:05 34.17373 114.40326 10597 ft 300 kts 154°
2026-04-22 16:05 34.15358 114.41316 10754 ft 325 kts 154°
2026-04-22 16:06 34.13191 114.42388 10955 ft 348 kts 154°
2026-04-22 16:06 34.10877 114.43534 11128 ft 370 kts 155°
2026-04-22 16:06 34.08424 114.44751 11290 ft 390 kts 155°
2026-04-22 16:06 34.05869 114.46018 11628 ft 403 kts 155°
2026-04-22 16:07 34.03270 114.47305 11856 ft 405 kts 155°
2026-04-22 16:07 34.00656 114.48599 11907 ft 408 kts 155°
2026-04-22 16:07 33.98023 114.49904 12496 ft 411 kts 155°
2026-04-22 16:07 33.95369 114.51220 13171 ft 413 kts 155°
2026-04-22 16:08 33.92707 114.52540 13793 ft 416 kts 156°
2026-04-22 16:08 33.90019 114.53873 14301 ft 420 kts 156°
2026-04-22 16:08 33.87305 114.55218 14808 ft 424 kts 157°
2026-04-22 16:08 33.84570 114.56572 15336 ft 427 kts 157°
2026-04-22 16:09 33.81813 114.57936 15843 ft 430 kts 158°
2026-04-22 16:09 33.79039 114.59307 16347 ft 433 kts 158°
2026-04-22 16:09 33.76238 114.60692 16829 ft 437 kts 159°
2026-04-22 16:09 33.73421 114.62084 17304 ft 440 kts 159°
2026-04-22 16:10 33.70580 114.63486 17770 ft 443 kts 159°
2026-04-22 16:10 33.67717 114.64897 18202 ft 446 kts 160°
2026-04-22 16:10 33.65807 114.65837 18429 ft 450 kts 160°
2026-04-22 16:10 33.61944 114.67688 18921 ft 453 kts 161°
2026-04-22 16:11 33.59006 114.69075 19332 ft 454 kts 161°
2026-04-22 16:11 33.56060 114.70467 19735 ft 456 kts 161°
2026-04-22 16:11 33.53103 114.71869 20106 ft 458 kts 162°
2026-04-22 16:11 33.50132 114.73287 20468 ft 461 kts 161°
2026-04-22 16:12 33.47319 114.75197 20768 ft 473 kts 143°
2026-04-22 16:12 33.45091 114.78136 21151 ft 480 kts 130°
2026-04-22 16:12 33.43038 114.81303 21495 ft 482 kts 132°
2026-04-22 16:12 33.40889 114.84397 21747 ft 485 kts 134°
2026-04-22 16:13 33.38685 114.87478 21992 ft 489 kts 134°
2026-04-22 16:13 33.36453 114.90559 22239 ft 492 kts 134°
2026-04-22 16:13 33.34202 114.93654 22532 ft 494 kts 135°
2026-04-22 16:13 33.31942 114.96763 22823 ft 496 kts 135°
2026-04-22 16:14 33.29676 114.99884 23096 ft 498 kts 135°
2026-04-22 16:14 33.27400 115.03022 23300 ft 502 kts 135°
2026-04-22 16:14 33.25102 115.06192 23444 ft 507 kts 135°
2026-04-22 16:14 33.22790 115.09382 23689 ft 508 kts 135°
2026-04-22 16:15 33.20474 115.12577 23921 ft 509 kts 135°
2026-04-22 16:15 33.18153 115.15775 24165 ft 510 kts 135°
2026-04-22 16:15 33.15830 115.18973 24397 ft 511 kts 135°
2026-04-22 16:15 33.13500 115.22176 24608 ft 512 kts 135°
2026-04-22 16:16 33.11161 115.25389 24817 ft 513 kts 135°
2026-04-22 16:16 33.08816 115.28606 25024 ft 515 kts 135°
2026-04-22 16:16 33.06465 115.31830 25228 ft 516 kts 135°
2026-04-22 16:16 33.04106 115.35063 25391 ft 517 kts 135°
2026-04-22 16:17 33.01742 115.38298 25572 ft 519 kts 135°
2026-04-22 16:17 32.99387 115.41567 25740 ft 521 kts 132°
2026-04-22 16:17 32.97321 115.45140 25884 ft 528 kts 123°
2026-04-22 16:17 32.95729 115.49094 26033 ft 533 kts 113°
2026-04-22 16:18 32.94519 115.53268 26191 ft 534 kts 111°
2026-04-22 16:18 32.93296 115.57446 26338 ft 534 kts 112°
2026-04-22 16:18 32.92015 115.61597 26500 ft 534 kts 113°
2026-04-22 16:18 32.90706 115.65727 26718 ft 532 kts 114°
2026-04-22 16:19 32.89391 115.69819 27076 ft 527 kts 115°
2026-04-22 16:19 32.87802 115.73727 27308 ft 522 kts 124°
2026-04-22 16:19 32.85751 115.77263 27454 ft 517 kts 134°
2026-04-22 16:19 32.83384 115.80471 27648 ft 516 kts 136°
2026-04-22 16:20 32.81028 115.83686 27860 ft 516 kts 135°
2026-04-22 16:20 32.78706 115.86930 28087 ft 516 kts 135°
2026-04-22 16:20 32.76401 115.90197 28317 ft 515 kts 135°
2026-04-22 16:20 32.74110 115.93466 28549 ft 515 kts 135°
2026-04-22 16:21 32.71820 115.96734 28750 ft 515 kts 135°
2026-04-22 16:21 32.69553 115.99962 28907 ft 516 kts 135°
2026-04-22 16:21 32.67251 116.03231 29112 ft 516 kts 135°
2026-04-22 16:21 32.64950 116.06493 29340 ft 515 kts 136°
2026-04-22 16:22 32.60339 116.13015 29735 ft 516 kts 136°
2026-04-22 16:22 32.58033 116.16274 29975 ft 516 kts 137°
2026-04-22 16:22 32.55728 116.19535 30222 ft 515 kts 136°
2026-04-22 16:23 32.51181 116.26101 30611 ft 516 kts 136°
2026-04-22 16:23 32.48917 116.29398 30810 ft 516 kts 136°
2026-04-22 16:23 32.46656 116.32689 31020 ft 515 kts 136°
2026-04-22 16:24 32.44392 116.35976 31244 ft 515 kts 136°
2026-04-22 16:24 32.39858 116.42532 31659 ft 515 kts 136°
2026-04-22 16:24 32.37589 116.45804 31877 ft 514 kts 136°
2026-04-22 16:25 32.35318 116.49075 32097 ft 514 kts 136°
2026-04-22 16:25 32.28490 116.58897 32076 ft 516 kts 136°
2026-04-22 16:26 32.23915 116.65464 32116 ft 520 kts 136°
2026-04-22 16:26 32.19305 116.72073 32125 ft 522 kts 136°
2026-04-22 16:27 32.14636 116.78652 32119 ft 523 kts 137°
2026-04-22 16:27 32.09923 116.85175 32121 ft 522 kts 137°
2026-04-22 16:28 32.05222 116.91692 32114 ft 521 kts 137°
2026-04-22 16:28 32.00539 116.98195 32118 ft 519 kts 137°
2026-04-22 16:29 31.96657 117.03580 32123 ft 519 kts 137°
2026-04-22 16:29 31.91217 117.11154 32109 ft 517 kts 136°
2026-04-22 16:30 31.87361 117.16522 32109 ft 517 kts 136°
2026-04-22 16:30 31.82720 117.22967 32105 ft 516 kts 136°
2026-04-22 16:31 31.78582 117.29908 32105 ft 530 kts 118°
2026-04-22 16:31 31.77066 117.35390 32102 ft 538 kts 104°
2026-04-22 16:31 31.76722 117.38357 32101 ft 542 kts 96°
2026-04-22 16:32 31.76259 117.47195 32105 ft 542 kts 96°
2026-04-22 16:32 31.75722 117.56033 32098 ft 542 kts 97°
2026-04-22 16:33 31.75108 117.64854 32098 ft 542 kts 97°
2026-04-22 16:33 31.74472 117.73677 32101 ft 542 kts 97°
2026-04-22 16:34 31.73836 117.82501 32101 ft 542 kts 97°
2026-04-22 16:34 31.73199 117.91320 32100 ft 542 kts 97°
2026-04-22 16:35 31.72556 118.00140 32112 ft 543 kts 97°
2026-04-22 16:35 31.71904 118.08993 32115 ft 544 kts 97°
2026-04-22 16:36 31.71271 118.17829 32101 ft 543 kts 97°
2026-04-22 16:36 31.70665 118.26621 32096 ft 541 kts 97°
2026-04-22 16:37 31.70052 118.35422 32096 ft 540 kts 97°
2026-04-22 16:37 31.69428 118.44208 32091 ft 539 kts 97°
2026-04-22 16:38 31.68798 118.52974 32090 ft 538 kts 97°
2026-04-22 16:38 31.68163 118.61727 32080 ft 538 kts 97°
2026-04-22 16:39 31.67522 118.70477 32064 ft 538 kts 97°
2026-04-22 16:39 31.66876 118.79220 32071 ft 538 kts 97°
2026-04-22 16:40 31.66223 118.87966 32065 ft 538 kts 97°
2026-04-22 16:41 31.65234 119.01075 32069 ft 538 kts 97°
2026-04-22 16:41 31.64648 119.09822 32084 ft 539 kts 95°
2026-04-22 16:42 31.64311 119.18598 32081 ft 539 kts 95°
2026-04-22 16:42 31.63914 119.27382 32068 ft 539 kts 95°
2026-04-22 16:43 31.63501 119.36142 32086 ft 534 kts 95°
2026-04-22 16:43 31.63300 119.40441 32061 ft 520 kts 95°
2026-04-22 16:43 31.63105 119.44606 32051 ft 503 kts 95°
2026-04-22 16:43 31.62914 119.48636 32049 ft 487 kts 95°
2026-04-22 16:44 31.62725 119.52549 32044 ft 473 kts 96°
2026-04-22 16:44 31.62541 119.56345 32037 ft 459 kts 96°
2026-04-22 16:44 31.62360 119.60032 32046 ft 446 kts 96°
2026-04-22 16:44 31.62185 119.63613 32039 ft 434 kts 96°
2026-04-22 16:45 31.62013 119.67098 32047 ft 422 kts 96°
2026-04-22 16:45 31.61690 119.73936 32067 ft 421 kts 96°
2026-04-22 16:46 31.61372 119.80839 32074 ft 426 kts 96°
2026-04-22 16:46 31.61047 119.87828 32062 ft 431 kts 96°
2026-04-22 16:47 31.60716 119.94830 32055 ft 435 kts 96°
2026-04-22 16:47 31.60381 120.01871 32036 ft 428 kts 96°
2026-04-22 16:48 31.60046 120.08793 32051 ft 425 kts 96°
2026-04-22 16:48 31.59705 120.15735 32045 ft 427 kts 96°
2026-04-22 16:49 31.59361 120.22703 32052 ft 429 kts 96°
2026-04-22 16:49 31.59007 120.29706 32040 ft 431 kts 97°
2026-04-22 16:49 31.58587 120.33166 32024 ft 427 kts 109°
2026-04-22 16:50 31.57671 120.36439 32060 ft 421 kts 115°
2026-04-22 16:50 31.55676 120.42894 32026 ft 421 kts 115°
2026-04-22 16:51 31.53720 120.49359 32033 ft 420 kts 114°
2026-04-22 16:51 31.51789 120.55821 32032 ft 419 kts 114°
2026-04-22 16:52 31.49867 120.62267 32036 ft 419 kts 114°
2026-04-22 16:52 31.47945 120.68697 32033 ft 418 kts 114°
2026-04-22 16:53 31.46021 120.75121 32029 ft 418 kts 114°
2026-04-22 16:53 31.44092 120.81544 32025 ft 418 kts 114°
2026-04-22 16:54 31.42159 120.87970 32029 ft 418 kts 114°
2026-04-22 16:54 31.40235 120.94350 32024 ft 419 kts 114°
2026-04-22 16:55 31.38293 121.00780 32013 ft 419 kts 114°
2026-04-22 16:55 31.36347 121.07213 32021 ft 419 kts 114°
2026-04-22 16:56 31.34385 121.13642 32013 ft 419 kts 115°
2026-04-22 16:56 31.32374 121.20043 32012 ft 419 kts 115°
2026-04-22 16:57 31.30388 121.26359 31605 ft 411 kts 115°
2026-04-22 16:57 31.29399 121.29502 31148 ft 413 kts 115°
2026-04-22 16:57 31.28412 121.32640 30948 ft 407 kts 115°
2026-04-22 16:57 31.27231 121.35566 30758 ft 390 kts 134°
2026-04-22 16:58 31.26062 121.37100 30546 ft 376 kts 148°